Time,TemperatureF,DewpointF,PressureIn,WindDirection,WindDirectionDegrees,WindSpeedMPH,WindSpeedGustMPH,Humidity,HourlyPrecipIn,Conditions,Clouds,dailyrainin,SoftwareType,DateUTC
2013-05-22 00:02:00,63.0,59.0,29.73,WNW,295,3.0,6.0,86,-99.99,,,-99.99,,2013-05-22 05:02:00,
2013-05-22 00:10:00,63.0,59.0,29.74,West,265,2.0,6.0,88,-99.99,,,-99.99,,2013-05-22 05:10:00,
2013-05-22 00:12:00,63.0,59.0,29.73,WNW,290,3.0,6.0,87,-99.99,,,-99.99,,2013-05-22 05:12:00,
2013-05-22 00:21:00,63.0,59.0,29.73,WNW,295,4.0,5.0,88,-99.99,,,-99.99,,2013-05-22 05:21:00,
2013-05-22 00:32:00,63.0,59.0,29.74,West,270,4.0,6.0,88,-99.99,,,-99.99,,2013-05-22 05:32:00,
2013-05-22 00:42:00,63.0,59.0,29.74,West,270,4.0,6.0,88,-99.99,,,-99.99,,2013-05-22 05:42:00,
2013-05-22 00:51:00,63.0,59.0,29.74,West,265,2.0,6.0,88,-99.99,,,-99.99,,2013-05-22 05:51:00,
2013-05-22 01:01:00,63.0,59.0,29.74,West,265,2.0,6.0,88,-99.99,,,-99.99,,2013-05-22 06:01:00,
2013-05-22 01:21:00,63.0,60.0,29.75,West,280,6.0,10.0,89,-99.99,,,-99.99,,2013-05-22 06:21:00,
2013-05-22 01:32:00,63.0,60.0,29.75,West,280,6.0,10.0,89,-99.99,,,-99.99,,2013-05-22 06:32:00,
2013-05-22 01:42:00,63.0,60.0,29.75,WNW,285,4.0,9.0,88,-99.99,,,-99.99,,2013-05-22 06:42:00,
2013-05-22 01:52:00,63.0,59.0,29.74,WNW,300,5.0,7.0,87,-99.99,,,-99.99,,2013-05-22 06:52:00,
2013-05-22 02:01:00,63.0,59.0,29.74,WNW,300,5.0,7.0,87,-99.99,,,-99.99,,2013-05-22 07:01:00,
2013-05-22 02:11:00,63.0,59.0,29.74,West,275,4.0,7.0,87,-99.99,,,-99.99,,2013-05-22 07:11:00,
2013-05-22 02:21:00,63.0,59.0,29.74,West,265,4.0,8.0,86,-99.99,,,-99.99,,2013-05-22 07:21:00,
2013-05-22 02:32:00,63.0,59.0,29.74,West,265,4.0,8.0,86,-99.99,,,-99.99,,2013-05-22 07:32:00,
2013-05-22 02:42:00,63.0,59.0,29.73,WSW,255,5.0,8.0,86,-99.99,,,-99.99,,2013-05-22 07:42:00,
2013-05-22 02:52:00,63.0,59.0,29.73,West,260,5.0,9.0,86,-99.99,,,-99.99,,2013-05-22 07:52:00,
2013-05-22 03:02:00,63.0,59.0,29.73,West,260,5.0,9.0,86,-99.99,,,-99.99,,2013-05-22 08:02:00,
2013-05-22 03:11:00,63.0,58.0,29.73,West,260,7.0,9.0,86,-99.99,,,-99.99,,2013-05-22 08:11:00,
2013-05-22 03:22:00,63.0,58.0,29.73,West,270,3.0,10.0,86,-99.99,,,-99.99,,2013-05-22 08:22:00,
2013-05-22 03:32:00,62.0,58.0,29.73,WSW,250,5.0,9.0,86,-99.99,,,-99.99,,2013-05-22 08:32:00,
2013-05-22 03:42:00,62.0,58.0,29.73,WSW,250,5.0,9.0,86,-99.99,,,-99.99,,2013-05-22 08:42:00,
2013-05-22 03:52:00,62.0,58.0,29.73,West,270,5.0,8.0,86,-99.99,,,-99.99,,2013-05-22 08:52:00,
2013-05-22 04:01:00,62.0,58.0,29.73,West,270,5.0,8.0,86,-99.99,,,-99.99,,2013-05-22 09:01:00,
2013-05-22 04:12:00,61.0,57.0,29.72,WNW,295,4.0,8.0,86,-99.99,,,-99.99,,2013-05-22 09:12:00,
2013-05-22 04:22:00,61.0,57.0,29.73,WNW,300,6.0,10.0,87,-99.99,,,-99.99,,2013-05-22 09:22:00,
2013-05-22 04:33:00,61.0,57.0,29.73,WNW,300,6.0,10.0,87,-99.99,,,-99.99,,2013-05-22 09:33:00,
2013-05-22 04:42:00,61.0,57.0,29.73,West,280,6.0,12.0,87,-99.99,,,-99.99,,2013-05-22 09:42:00,
2013-05-22 04:53:00,60.0,57.0,29.73,West,270,5.0,10.0,87,-99.99,,,-99.99,,2013-05-22 09:53:00,
2013-05-22 05:03:00,60.0,57.0,29.73,West,270,5.0,10.0,87,-99.99,,,-99.99,,2013-05-22 10:03:00,
2013-05-22 05:12:00,60.0,56.0,29.74,West,280,7.0,11.0,87,-99.99,,,-99.99,,2013-05-22 10:12:00,
2013-05-22 05:22:00,60.0,56.0,29.75,West,270,7.0,11.0,87,-99.99,,,-99.99,,2013-05-22 10:22:00,
2013-05-22 05:33:00,60.0,56.0,29.75,WSW,250,5.0,11.0,87,-99.99,,,-99.99,,2013-05-22 10:33:00,
2013-05-22 05:42:00,60.0,56.0,29.75,WSW,250,5.0,11.0,87,-99.99,,,-99.99,,2013-05-22 10:42:00,
2013-05-22 05:52:00,60.0,56.0,29.76,WSW,255,7.0,14.0,87,-99.99,,,-99.99,,2013-05-22 10:52:00,
2013-05-22 06:02:00,60.0,56.0,29.76,WSW,255,7.0,14.0,87,-99.99,,,-99.99,,2013-05-22 11:02:00,
2013-05-22 06:11:00,60.0,56.0,29.76,WSW,250,9.0,14.0,87,-99.99,,,-99.99,,2013-05-22 11:11:00,
2013-05-22 06:22:00,59.0,55.0,29.76,WSW,250,6.0,11.0,87,-99.99,,,-99.99,,2013-05-22 11:22:00,
2013-05-22 06:32:00,59.0,55.0,29.76,WSW,240,6.0,10.0,87,-99.99,,,-99.99,,2013-05-22 11:32:00,
2013-05-22 06:42:00,59.0,55.0,29.76,WSW,240,6.0,10.0,87,-99.99,,,-99.99,,2013-05-22 11:42:00,
2013-05-22 06:52:00,59.0,56.0,29.76,West,265,5.0,8.0,88,-99.99,,,-99.99,,2013-05-22 11:52:00,
2013-05-22 07:02:00,59.0,56.0,29.76,West,265,5.0,8.0,88,-99.99,,,-99.99,,2013-05-22 12:02:00,
2013-05-22 07:12:00,59.0,55.0,29.76,WSW,255,5.0,7.0,87,-99.99,,,-99.99,,2013-05-22 12:12:00,
2013-05-22 07:22:00,60.0,56.0,29.77,WSW,250,7.0,10.0,87,-99.99,,,-99.99,,2013-05-22 12:22:00,
2013-05-22 07:32:00,60.0,56.0,29.77,WSW,250,7.0,10.0,87,-99.99,,,-99.99,,2013-05-22 12:32:00,
2013-05-22 07:42:00,60.0,56.0,29.77,SW,235,8.0,11.0,86,-99.99,,,-99.99,,2013-05-22 12:42:00,
2013-05-22 07:52:00,62.0,57.0,29.76,WSW,250,11.0,17.0,82,-99.99,,,-99.99,,2013-05-22 12:52:00,
2013-05-22 08:01:00,62.0,57.0,29.76,WSW,250,11.0,17.0,82,-99.99,,,-99.99,,2013-05-22 13:01:00,
2013-05-22 08:12:00,63.0,57.0,29.76,WSW,245,12.0,18.0,81,-99.99,,,-99.99,,2013-05-22 13:12:00,
2013-05-22 08:22:00,63.0,57.0,29.76,WSW,250,8.0,15.0,80,-99.99,,,-99.99,,2013-05-22 13:22:00,
2013-05-22 08:32:00,63.0,57.0,29.76,WSW,250,8.0,15.0,80,-99.99,,,-99.99,,2013-05-22 13:32:00,
2013-05-22 08:42:00,63.0,57.0,29.76,WSW,255,10.0,15.0,80,-99.99,,,-99.99,,2013-05-22 13:42:00,
2013-05-22 08:52:00,62.0,56.0,29.77,WSW,250,11.0,14.0,80,-99.99,,,-99.99,,2013-05-22 13:52:00,
2013-05-22 09:02:00,62.0,56.0,29.77,WSW,250,11.0,14.0,80,-99.99,,,-99.99,,2013-05-22 14:02:00,
2013-05-22 09:11:00,63.0,57.0,29.77,West,280,9.0,15.0,80,-99.99,,,-99.99,,2013-05-22 14:11:00,
2013-05-22 09:21:00,64.0,57.0,29.77,West,260,11.0,20.0,77,-99.99,,,-99.99,,2013-05-22 14:21:00,
2013-05-22 09:32:00,65.0,57.0,29.78,West,275,14.0,20.0,77,-99.99,,,-99.99,,2013-05-22 14:32:00,
2013-05-22 09:42:00,65.0,57.0,29.78,West,275,14.0,20.0,77,-99.99,,,-99.99,,2013-05-22 14:42:00,
2013-05-22 09:52:00,65.0,57.0,29.79,West,280,12.0,19.0,75,-99.99,,,-99.99,,2013-05-22 14:52:00,
2013-05-22 10:01:00,65.0,57.0,29.79,West,280,12.0,19.0,75,-99.99,,,-99.99,,2013-05-22 15:01:00,
2013-05-22 10:11:00,65.0,57.0,29.79,West,280,14.0,21.0,75,-99.99,,,-99.99,,2013-05-22 15:11:00,
2013-05-22 10:22:00,66.0,57.0,29.79,West,275,12.0,21.0,74,-99.99,,,-99.99,,2013-05-22 15:22:00,
2013-05-22 10:32:00,67.0,57.0,29.79,WNW,285,11.0,21.0,72,-99.99,,,-99.99,,2013-05-22 15:32:00,
2013-05-22 10:42:00,67.0,57.0,29.79,WNW,285,11.0,21.0,72,-99.99,,,-99.99,,2013-05-22 15:42:00,
2013-05-22 10:53:00,68.0,58.0,29.79,WSW,255,13.0,21.0,70,-99.99,,,-99.99,,2013-05-22 15:53:00,
2013-05-22 11:03:00,68.0,58.0,29.79,WSW,255,13.0,21.0,70,-99.99,,,-99.99,,2013-05-22 16:03:00,
2013-05-22 11:12:00,68.0,58.0,29.80,WNW,290,12.0,19.0,69,-99.99,,,-99.99,,2013-05-22 16:12:00,
2013-05-22 11:23:00,69.0,57.0,29.80,West,265,10.0,18.0,66,-99.99,,,-99.99,,2013-05-22 16:23:00,
2013-05-22 11:32:00,70.0,57.0,29.81,WNW,285,7.0,18.0,65,-99.99,,,-99.99,,2013-05-22 16:32:00,
2013-05-22 11:42:00,70.0,57.0,29.81,WNW,285,7.0,18.0,65,-99.99,,,-99.99,,2013-05-22 16:42:00,
2013-05-22 11:52:00,69.0,55.0,29.81,West,270,11.0,18.0,62,-99.99,,,-99.99,,2013-05-22 16:52:00,
2013-05-22 12:02:00,69.0,55.0,29.81,West,270,11.0,18.0,62,-99.99,,,-99.99,,2013-05-22 17:02:00,
2013-05-22 12:11:00,71.0,58.0,29.81,WNW,295,7.0,19.0,64,-99.99,,,-99.99,,2013-05-22 17:11:00,
2013-05-22 12:23:00,71.0,55.0,29.81,WNW,295,12.0,20.0,57,-99.99,,,-99.99,,2013-05-22 17:23:00,
2013-05-22 12:33:00,71.0,55.0,29.81,WNW,300,11.0,24.0,57,-99.99,,,-99.99,,2013-05-22 17:33:00,
2013-05-22 12:42:00,71.0,55.0,29.81,WNW,300,11.0,24.0,57,-99.99,,,-99.99,,2013-05-22 17:42:00,
2013-05-22 12:53:00,71.0,54.0,29.81,West,280,10.0,22.0,55,-99.99,,,-99.99,,2013-05-22 17:53:00,
2013-05-22 13:02:00,71.0,54.0,29.81,West,280,10.0,22.0,55,-99.99,,,-99.99,,2013-05-22 18:02:00,
2013-05-22 13:14:00,71.0,55.0,29.81,West,280,10.0,20.0,57,-99.99,,,-99.99,,2013-05-22 18:14:00,
2013-05-22 13:22:00,72.0,55.0,29.81,West,280,15.0,23.0,55,-99.99,,,-99.99,,2013-05-22 18:22:00,
2013-05-22 13:33:00,72.0,55.0,29.81,West,280,15.0,23.0,55,-99.99,,,-99.99,,2013-05-22 18:33:00,
2013-05-22 13:42:00,71.0,54.0,29.81,WNW,290,13.0,21.0,55,-99.99,,,-99.99,,2013-05-22 18:42:00,
2013-05-22 13:52:00,71.0,55.0,29.82,NW,305,12.0,22.0,57,-99.99,,,-99.99,,2013-05-22 18:52:00,
2013-05-22 14:02:00,71.0,55.0,29.82,NW,305,12.0,22.0,57,-99.99,,,-99.99,,2013-05-22 19:02:00,
2013-05-22 14:11:00,72.0,56.0,29.82,WNW,295,11.0,19.0,57,-99.99,,,-99.99,,2013-05-22 19:11:00,
2013-05-22 14:21:00,72.0,56.0,29.82,West,270,9.0,20.0,57,-99.99,,,-99.99,,2013-05-22 19:21:00,
2013-05-22 14:32:00,72.0,56.0,29.82,WNW,285,9.0,21.0,57,-99.99,,,-99.99,,2013-05-22 19:32:00,
2013-05-22 14:42:00,72.0,56.0,29.82,WNW,285,9.0,21.0,57,-99.99,,,-99.99,,2013-05-22 19:42:00,
2013-05-22 14:52:00,72.0,55.0,29.82,NW,305,12.0,21.0,55,-99.99,,,-99.99,,2013-05-22 19:52:00,
2013-05-22 15:02:00,72.0,55.0,29.82,NW,305,12.0,21.0,55,-99.99,,,-99.99,,2013-05-22 20:02:00,
2013-05-22 15:11:00,72.0,57.0,29.82,WNW,290,10.0,18.0,58,-99.99,,,-99.99,,2013-05-22 20:11:00,
2013-05-22 15:22:00,72.0,55.0,29.82,WNW,295,15.0,24.0,54,-99.99,,,-99.99,,2013-05-22 20:22:00,
2013-05-22 15:32:00,72.0,55.0,29.81,West,280,13.0,26.0,55,-99.99,,,-99.99,,2013-05-22 20:32:00,
2013-05-22 15:42:00,72.0,55.0,29.81,West,280,13.0,26.0,55,-99.99,,,-99.99,,2013-05-22 20:42:00,
2013-05-22 15:51:00,73.0,56.0,29.81,NW,310,11.0,20.0,55,-99.99,,,-99.99,,2013-05-22 20:51:00,
2013-05-22 16:01:00,73.0,56.0,29.81,NW,310,11.0,20.0,55,-99.99,,,-99.99,,2013-05-22 21:01:00,
2013-05-22 16:11:00,73.0,56.0,29.82,WNW,290,11.0,23.0,55,-99.99,,,-99.99,,2013-05-22 21:11:00,
2013-05-22 16:20:00,73.0,56.0,29.81,WNW,300,9.0,20.0,56,-99.99,,,-99.99,,2013-05-22 21:20:00,
2013-05-22 16:21:00,72.0,55.0,29.82,West,280,11.0,22.0,54,-99.99,,,-99.99,,2013-05-22 21:21:00,
2013-05-22 16:32:00,72.0,56.0,29.81,West,275,11.0,22.0,56,-99.99,,,-99.99,,2013-05-22 21:32:00,
2013-05-22 16:42:00,72.0,56.0,29.81,West,275,11.0,22.0,56,-99.99,,,-99.99,,2013-05-22 21:42:00,
2013-05-22 16:52:00,73.0,56.0,29.81,WNW,300,9.0,20.0,56,-99.99,,,-99.99,,2013-05-22 21:52:00,
2013-05-22 17:03:00,73.0,56.0,29.81,WNW,300,9.0,20.0,56,-99.99,,,-99.99,,2013-05-22 22:03:00,
2013-05-22 17:13:00,73.0,56.0,29.81,WNW,300,9.0,20.0,56,-99.99,,,-99.99,,2013-05-22 22:13:00,
2013-05-22 17:42:00,73.0,56.0,29.82,WNW,285,7.0,21.0,55,-99.99,,,-99.99,,2013-05-22 22:42:00,
2013-05-22 17:52:00,72.0,56.0,29.82,WNW,285,13.0,20.0,56,-99.99,,,-99.99,,2013-05-22 22:52:00,
2013-05-22 18:02:00,72.0,56.0,29.82,WNW,285,13.0,20.0,56,-99.99,,,-99.99,,2013-05-22 23:02:00,
2013-05-22 18:12:00,73.0,56.0,29.82,NW,315,10.0,19.0,55,-99.99,,,-99.99,,2013-05-22 23:12:00,
2013-05-22 18:21:00,72.0,54.0,29.83,NW,315,12.0,19.0,53,-99.99,,,-99.99,,2013-05-22 23:21:00,
2013-05-22 18:32:00,72.0,54.0,29.83,NW,315,12.0,19.0,53,-99.99,,,-99.99,,2013-05-22 23:32:00,
2013-05-22 18:42:00,72.0,55.0,29.83,WNW,285,7.0,16.0,56,-99.99,,,-99.99,,2013-05-22 23:42:00,
2013-05-22 18:52:00,70.0,54.0,29.83,WNW,300,11.0,18.0,57,-99.99,,,-99.99,,2013-05-22 23:52:00,
2013-05-22 19:01:00,70.0,54.0,29.83,WNW,300,11.0,18.0,57,-99.99,,,-99.99,,2013-05-23 00:01:00,
2013-05-22 19:11:00,71.0,55.0,29.83,NW,315,8.0,15.0,58,-99.99,,,-99.99,,2013-05-23 00:11:00,
2013-05-22 19:22:00,70.0,54.0,29.83,WNW,295,9.0,13.0,57,-99.99,,,-99.99,,2013-05-23 00:22:00,
2013-05-22 19:32:00,70.0,54.0,29.83,WNW,295,9.0,13.0,57,-99.99,,,-99.99,,2013-05-23 00:32:00,
2013-05-22 19:42:00,70.0,54.0,29.83,WNW,295,9.0,13.0,57,-99.99,,,-99.99,,2013-05-23 00:42:00,
2013-05-22 19:51:00,70.0,56.0,29.84,NW,310,4.0,10.0,61,-99.99,,,-99.99,,2013-05-23 00:51:00,
2013-05-22 20:01:00,70.0,56.0,29.84,NW,310,4.0,10.0,61,-99.99,,,-99.99,,2013-05-23 01:01:00,
2013-05-22 20:11:00,69.0,54.0,29.84,NW,320,6.0,15.0,59,-99.99,,,-99.99,,2013-05-23 01:11:00,
2013-05-22 20:22:00,68.0,55.0,29.85,WNW,300,6.0,10.0,62,-99.99,,,-99.99,,2013-05-23 01:22:00,
2013-05-22 20:32:00,68.0,55.0,29.85,NW,305,5.0,10.0,63,-99.99,,,-99.99,,2013-05-23 01:32:00,
2013-05-22 20:42:00,68.0,55.0,29.85,NW,305,5.0,10.0,63,-99.99,,,-99.99,,2013-05-23 01:42:00,
2013-05-22 20:52:00,67.0,55.0,29.86,WNW,290,3.0,6.0,65,-99.99,,,-99.99,,2013-05-23 01:52:00,
2013-05-22 21:02:00,67.0,55.0,29.86,WNW,290,3.0,6.0,65,-99.99,,,-99.99,,2013-05-23 02:02:00,
2013-05-22 21:11:00,66.0,55.0,29.87,West,270,4.0,5.0,66,-99.99,,,-99.99,,2013-05-23 02:11:00,
2013-05-22 21:21:00,66.0,54.0,29.87,WNW,290,2.0,4.0,67,-99.99,,,-99.99,,2013-05-23 02:21:00,
2013-05-22 21:32:00,66.0,55.0,29.88,NW,320,2.0,4.0,68,-99.99,,,-99.99,,2013-05-23 02:32:00,
2013-05-22 21:42:00,66.0,55.0,29.88,NW,320,2.0,4.0,68,-99.99,,,-99.99,,2013-05-23 02:42:00,
2013-05-22 21:51:00,66.0,55.0,29.88,NW,320,2.0,4.0,68,-99.99,,,-99.99,,2013-05-23 02:51:00,
2013-05-22 22:02:00,65.0,55.0,29.88,West,270,3.0,4.0,69,-99.99,,,-99.99,,2013-05-23 03:02:00,
2013-05-22 22:11:00,64.0,55.0,29.88,WNW,290,3.0,4.0,71,-99.99,,,-99.99,,2013-05-23 03:11:00,
2013-05-22 22:21:00,63.0,54.0,29.90,West,280,2.0,3.0,72,-99.99,,,-99.99,,2013-05-23 03:21:00,
2013-05-22 22:33:00,63.0,54.0,29.90,West,280,2.0,3.0,72,-99.99,,,-99.99,,2013-05-23 03:33:00,
2013-05-22 22:43:00,63.0,55.0,29.91,NW,305,3.0,5.0,74,-99.99,,,-99.99,,2013-05-23 03:43:00,
2013-05-22 22:53:00,63.0,55.0,29.92,North,0,3.0,5.0,74,-99.99,,,-99.99,,2013-05-23 03:53:00,
2013-05-22 23:03:00,63.0,55.0,29.92,North,0,3.0,5.0,74,-99.99,,,-99.99,,2013-05-23 04:03:00,
2013-05-22 23:12:00,63.0,55.0,29.92,NW,325,2.0,5.0,76,-99.99,,,-99.99,,2013-05-23 04:12:00,
2013-05-22 23:22:00,62.0,55.0,29.92,NW,325,2.0,5.0,76,-99.99,,,-99.99,,2013-05-23 04:22:00,
2013-05-22 23:33:00,62.0,55.0,29.92,NW,315,2.0,4.0,77,-99.99,,,-99.99,,2013-05-23 04:33:00,
2013-05-22 23:43:00,62.0,55.0,29.92,NW,315,2.0,4.0,77,-99.99,,,-99.99,,2013-05-23 04:43:00,
2013-05-22 23:52:00,62.0,55.0,29.92,NW,320,3.0,4.0,79,-99.99,,,-99.99,,2013-05-23 04:52:00,